BEIDOU-3 G3 (45807 NORAD) Tracking and Keplerian Element Data

This shows tracking and keplerian element data for the satellite.

Feedback or suggestion? Click here.




ElementValue
Catalog45807
NameBEIDOU-3 G3
Epoch Orbit34
Epoch Day191.90171566
Epoch Year2020
RAAN298.8841
Inclination3.0666
Eccentricity0.0005333
Argument of Perigee347.8042
Mean Anonmoly76.6864
Mean Motion1.00269903
Decay Rate-3.58E-06
L11 45807U 20040A 20191.90171566 -.00000358 00000-0 00000-0 0 9995
L22 45807 3.0666 298.8841 0005333 347.8042 76.6864 1.00269903 343

Live tracking and technical data element details for BEIDOU-3 G3 (NORAD 45807). BEIDOU-3 G3 can be tracked NOW for your location showing map with azimuth and elevation plus other details from your city location.

Track the satellite on the map from your city or location and see movement details for azimuth, elevation, latitude, longitude, range, height, and movement on the map or in text.







IsCatalogInMostPopularTable: catalog: 45807, numindb: 7
Update: records affected: 1



GetName: 45807 BEIDOU-3 G3

Hit Count: updated at: Fri, 10 Jul 2020 15:58:09 GMT